Location: Krasnoyarskiy Pitomnik
(51.1333°N, 71.6167°E)
Time: 21:14:48
(UTC+00:00)

Altair - Pass Details

Date: 20 April 2024
Orbit: 1501 x 1682 km, 47.2° (Epoch: 19 May)

Event Time Altitude Azimuth Distance (km) Brightness Sun altitude
Rises 13:31:26 0° 213° (SSW) 4,918 10.5 6.2°
Reaches altitude 10° 13:34:54 10° 206° (SSW) 3,922 9.9 5.7°
Maximum altitude 13:43:49 38° 143° (SE) 2,330 8.2 4.3°
Drops below altitude 10° 13:52:31 10° 81° (E) 3,829 9.0 3.0°
Sets 13:55:50 0° 73° (ENE) 4,791 9.6 2.5°
